SHIJIAN-30A (SJ-30A)

Last updated on Fri Dec 19 2025 00:02:05 GMT+0000 (Coordinated Universal Time)

1 66545U 25266A 25352.75767234 .00009424 00000+0 50489-3 0 9992 2 66545 51.7998 304.6694 0013040 17.6045 342.5380 15.15581704 4499
UTC large
Height (km)
Speed (km/s)
/
Latitude / Longitude
Inclination (degrees)
Orbital Period (minutes)
Azimuth
Elevation
Range (km)
Doppler Factor

Next 0 passes for location: London (51.5072 / 0.1276)

Sorry there are no passes over London.